Regional Weather Roundup
Issued by NWS

Home | Current Version | Previous Version | Graphics & Text | Print | Product List | Glossary On
Versions: 1 2 3 4 5 6 7 8 9 10 11 12 13 14 15 16 17 18 19 20 21 22 23 24 25 26 27 28
000
ASUS45 KTFX 212010
RWRMT
MONTANA REGIONAL WEATHER ROUNDUP
NATIONAL WEATHER SERVICE GREAT FALLS MT
100 PM MST TUE FEB 21 2017

NOTE: "FAIR" INDICATES FEW OR NO CLOUDS BELOW 12000 FEET WITH NO
SIGNIFICANT WEATHER AND/OR OBSTRUCTIONS TO VISIBILITY.

MTZ001>007-043-212100-
WEST OF THE DIVIDE

CITY           SKY/WX    TMP DP  RH WIND       PRES   REMARKS
KALISPELL      LGT SNOW  33  32  96 S3        29.66S FOG
MISSOULA       LGT RAIN  38  37  97 E5        29.70S
BUTTE          CLOUDY    43  24  47 SW9G24    29.69F
MULLAN PASS    SNOW      29  29 100 SW7       29.59S VSB 1/4 WCI  22
ANACONDA         N/A     39  30  70 S24G32    29.70S WCI  28
DEER LODGE       N/A     46  34  61 S7        29.68S
EUREKA           N/A     34  30  86 CALM      29.69S VSB 1
HAMILTON         N/A     50  27  40 S16G23    29.67S
LIBBY            N/A     34  34 100 CALM      29.66F VSB 1
PLAINS           N/A     35  30  82 CALM      29.70
RONAN            N/A     35  33  92 CALM      29.72S
THOMPSON FALLS   N/A     35  33  92 SE1       29.73F
$$

MTZ008-052>055-212100-
SOUTHWEST MONTANA

CITY           SKY/WX    TMP DP  RH WIND       PRES   REMARKS
BOZEMAN        CLOUDY    51  27  39 SW17G29   29.70R
DILLON         CLOUDY    45  25  45 SW26G40   29.75F
W YELLOWSTONE  CLOUDY    36  32  87 SW12G22   29.84S WCI  27
ENNIS          MOSUNNY   41  28  60 SW25G36   29.81S
$$

MTZ009-010-012-014-046-048-049-054-212100-
EAST SLOPES AND CENTRAL MONTANA

CITY           SKY/WX    TMP DP  RH WIND       PRES   REMARKS
CUT BANK       LGT SNOW  32  32 100 CALM      29.65R VSB 3/4
GREAT FALLS    CLOUDY    43  36  76 NE6       29.61F
MALMSTROM AFB  CLOUDY    42  38  86 NE8       29.62F
HELENA         CLOUDY    43  36  76 E8        29.64F
AUGUSTA          N/A     40  32  71 NE13      29.60F
BOWMANS CRNR   PTSUNNY   43  34  69 SW15      29.59F
CHOTEAU          N/A     39  32  75 N12       29.64S WCI  32
CONRAD           N/A     33  33 100 MISG      29.70S
POWER          PTSUNNY   41  35  79 E6        29.61F
RAYNESFORD     PTSUNNY   46  33  59 NW7       29.61F
ULM            PTSUNNY   43  36  75 MISG      29.61S
$$

MTZ011-013-016-021-045-047-050-051-212100-
NORTH CENTRAL MONTANA

CITY           SKY/WX    TMP DP  RH WIND       PRES   REMARKS
HAVRE          LGT RAIN  38  35  89 W3        29.67S
LEWISTOWN      CLOUDY    47  32  56 W18       29.62S
N BAR RANCH    PTSUNNY   50  27  40 W12G20    29.64F
CHINOOK          N/A     39  36  87 CALM      29.67S
DENTON         PTSUNNY   43  37  78 E8G16     29.59F
FORT BENTON      N/A     39  36  87 MISG      29.65S
GEYSER         LGT RAIN  41  35  80 CALM      29.61F
GRASS RANGE    CLOUDY    44  36  71 N5        29.59F
JUDITH GAP       N/A     51  29  41 SW24G33   29.61F
ROY              N/A     46  39  78 MISG      29.60F
STANFORD       PTSUNNY   44  33  65 W31G38    29.63R
WINIFRED       PTSUNNY   46  38  76 E6        29.60F
$$

MTZ017>020-022>027-061-062-212100-
NORTHEAST MONTANA

CITY           SKY/WX    TMP DP  RH WIND       PRES   REMARKS
GLASGOW        CLOUDY    46  36  68 NW9       29.64F
JORDAN           N/A     49  38  65 SE7       29.62F
SIDNEY         CLOUDY    48  37  65 S8        29.66F
WOLF POINT     CLOUDY    40  36  86 SW3       29.65F
PLENTYWOOD       N/A     45  36  70 N6        29.63S
POPLAR           N/A     39  34  81 CALM      29.65F
SCOBEY           N/A     46  31  56 W6        29.63
$$

MTZ028>42-056>058-212100-
SOUTHCENTRAL AND SOUTHEAST MONTANA

CITY           SKY/WX    TMP DP  RH WIND       PRES   REMARKS
BAKER          SUNNY     58  35  42 VRB5      29.67F
BILLINGS       MOSUNNY   62  23  22 SW29G41   29.61F
LIVINGSTON     CLOUDY    57  25  29 SW44G54   29.64S
MILES CITY     SUNNY     56  39  53 VRB6      29.64F
BIG TIMBER     MOSUNNY   59  19  21 W32G39    29.66S
EKALAKA          N/A     60  31  33 SW10      29.68
FORSYTH          N/A     59  39  47 CALM      29.62F
HARLOWTON        N/A     54  22  28 W40G46    29.61F
LAUREL           N/A     61  26  26 SW24      29.66F
$$

REGIONAL REPORTS...DAKOTAS

CITY           SKY/WX    TMP DP  RH WIND       PRES   REMARKS
WILLISTON      CLOUDY    40  32  73 SW10      29.65F
MINOT          CLOUDY    48  36  63 SW10      29.63F
DICKINSON      CLOUDY    54  33  45 SW6       29.66F
BEACH            N/A    N/A N/A N/A MISG        N/A
CROSBY           N/A     43  39  87 SW10      29.65S
TIOGA            N/A     39  39 100 SW13      29.65F WCI  32
WATFORD CITY   MIX PCPN  41  34  75 NW10      29.67F
BISMARCK       CLOUDY    53  35  50 CALM      29.68S
GRAND FORKS    MOSUNNY   45  32  60 CALM      29.65F
FARGO          MOSUNNY   46  38  73 SW10      29.66S
BUFFALO SD       N/A     66  30  26 SW13G20   29.60F
RAPID CITY     SUNNY     71  29  21 SW25G37   29.70F
$$

REGIONAL REPORTS...WYOMING/IDAHO/WASHINGTON

CITY           SKY/WX    TMP DP  RH WIND       PRES   REMARKS
GILLETTE       PTSUNNY   63  28  26 W25G35    29.72F
SHERIDAN       SUNNY     61  31  32 W17G26    29.72F
BUFFALO WY     SUNNY     62  27  26 SW22G31   29.74F
CODY           LGT RAIN  44  34  67 W9G21     29.82R
YELLOWSTONE LA   N/A     34  26  72 W14G28    29.86F WCI  25
IDAHO FALLS    LGT RAIN  39  35  86 SW15      29.92F WCI  31
SALMON         MOSUNNY   43  30  61 SW22      29.78R
BOISE          MOSUNNY   55  30  38 SW20G32   29.92R
SPOKANE        LGT SNOW  35  33  92 N5        29.72R FOG
$$

REGIONAL REPORTS...ALBERTA

CITY           SKY/WX    TMP DP  RH WIND       PRES   REMARKS
EDMONTON       PTSUNNY   36  30  80 NW6       29.67S WCI  31
CALGARY        MOSUNNY   32  25  74 VRB3      29.65F HAZE
LETHBRIDGE     CLOUDY    32  30  93 VRB3      29.67S FOG
MEDICINE HAT   CLOUDY    36  34  93 NE3       29.68F FOG
WATERTON GATE    N/A     36  28  75 W2          N/A
CARDSTON         N/A     32  30  93 N2          N/A
MILK RIVER       N/A     41  28  60 W6          N/A
$$

REGIONAL REPORTS...SASKATCHEWAN

CITY           SKY/WX    TMP DP  RH WIND       PRES   REMARKS
SWIFT CURRENT  CLOUDY    32  32 100 N10       29.67S FOG     WCI  24
REGINA         CLOUDY    36  30  80 N8        29.65F WCI  29
SASKATOON      CLOUDY    34  25  69 N9        29.74S WCI  26
VAL MARIE        N/A     39  32  75 NW6         N/A
ROCKGLEN         N/A     39  34  81 NW10        N/A
$$




USA.gov is the U.S. government's official web portal to all federal, state and local government web resources and services.